owner,sensor,date,latitude,longitude,vertical_datum,sea_water_practical_salinity,qcFlag 
NERRS,ioos:station:NOAA.NERRS:marcewq:1,2012-09-06T17:30:00Z,28.1323,-97.0344,0.0,35.9,1111122 
NERRS,ioos:station:NOAA.NERRS:marcewq:1,2012-09-06T18:00:00Z,28.1323,-97.0344,0.0,35.7,1111122 
NERRS,ioos:station:NOAA.NERRS:marcewq:1,2012-09-06T18:30:00Z,28.1323,-97.0344,0.0,35.7,1111122 
NERRS,ioos:station:NOAA.NERRS:marcewq:1,2012-09-06T19:00:00Z,28.1323,-97.0344,0.0,35.6,1111122 
NERRS,ioos:station:NOAA.NERRS:marcewq:1,2012-09-06T19:30:00Z,28.1323,-97.0344,0.0,35.6,1111122 
NERRS,ioos:station:NOAA.NERRS:marcewq:1,2012-09-06T20:00:00Z,28.1323,-97.0344,0.0,35.8,1111122 
NERRS,ioos:station:NOAA.NERRS:marcewq:1,2012-09-06T20:30:00Z,28.1323,-97.0344,0.0,35.8,1111122 
NERRS,ioos:station:NOAA.NERRS:marcewq:1,2012-09-06T21:00:00Z,28.1323,-97.0344,0.0,35.9,1111122 
NERRS,ioos:station:NOAA.NERRS:marcewq:1,2012-09-06T21:30:00Z,28.1323,-97.0344,0.0,36.0,1111122 
NERRS,ioos:station:NOAA.NERRS:marcewq:1,2012-09-06T22:00:00Z,28.1323,-97.0344,0.0,36.1,1111122 
NERRS,ioos:station:NOAA.NERRS:marcewq:1,2012-09-06T22:30:00Z,28.1323,-97.0344,0.0,36.1,1111122 
NERRS,ioos:station:NOAA.NERRS:marcewq:1,2012-09-06T23:00:00Z,28.1323,-97.0344,0.0,36.1,1111122 
NERRS,ioos:station:NOAA.NERRS:marcewq:1,2012-09-06T23:30:00Z,28.1323,-97.0344,0.0,36.1,1111122 
NERRS,ioos:station:NOAA.NERRS:marcewq:1,2012-09-07T00:00:00Z,28.1323,-97.0344,0.0,36.1,1111122 
NERRS,ioos:station:NOAA.NERRS:marcewq:1,2012-09-07T00:30:00Z,28.1323,-97.0344,0.0,36.1,1111122 
NERRS,ioos:station:NOAA.NERRS:marcewq:1,2012-09-07T01:00:00Z,28.1323,-97.0344,0.0,36.0,1111122 
NERRS,ioos:station:NOAA.NERRS:marcewq:1,2012-09-07T01:30:00Z,28.1323,-97.0344,0.0,36.0,1111122 
NERRS,ioos:station:NOAA.NERRS:marcewq:1,2012-09-07T02:00:00Z,28.1323,-97.0344,0.0,35.9,1111122 
NERRS,ioos:station:NOAA.NERRS:marcewq:1,2012-09-07T02:30:00Z,28.1323,-97.0344,0.0,35.9,1111122 
NERRS,ioos:station:NOAA.NERRS:marcewq:1,2012-09-07T03:00:00Z,28.1323,-97.0344,0.0,35.8,1111122 
NERRS,ioos:station:NOAA.NERRS:marcewq:1,2012-09-07T03:30:00Z,28.1323,-97.0344,0.0,35.7,1111122 
NERRS,ioos:station:NOAA.NERRS:marcewq:1,2012-09-07T04:00:00Z,28.1323,-97.0344,0.0,35.7,1111122 
NERRS,ioos:station:NOAA.NERRS:marcewq:1,2012-09-07T04:30:00Z,28.1323,-97.0344,0.0,35.7,1111122 
NERRS,ioos:station:NOAA.NERRS:marcewq:1,2012-09-07T05:00:00Z,28.1323,-97.0344,0.0,35.6,1111122 
NERRS,ioos:station:NOAA.NERRS:marcewq:1,2012-09-07T05:30:00Z,28.1323,-97.0344,0.0,35.6,1111122 
NERRS,ioos:station:NOAA.NERRS:marcewq:1,2012-09-07T06:00:00Z,28.1323,-97.0344,0.0,35.6,1111122 
NERRS,ioos:station:NOAA.NERRS:marcewq:1,2012-09-07T06:30:00Z,28.1323,-97.0344,0.0,35.6,1111122 
NERRS,ioos:station:NOAA.NERRS:marcewq:1,2012-09-07T07:00:00Z,28.1323,-97.0344,0.0,35.7,1111122 
NERRS,ioos:station:NOAA.NERRS:marcewq:1,2012-09-07T07:30:00Z,28.1323,-97.0344,0.0,35.7,1111122 
NERRS,ioos:station:NOAA.NERRS:marcewq:1,2012-09-07T08:00:00Z,28.1323,-97.0344,0.0,35.8,1111122 
NERRS,ioos:station:NOAA.NERRS:marcewq:1,2012-09-07T08:30:00Z,28.1323,-97.0344,0.0,35.8,1111122 
NERRS,ioos:station:NOAA.NERRS:marcewq:1,2012-09-07T09:00:00Z,28.1323,-97.0344,0.0,36.0,1111122 
NERRS,ioos:station:NOAA.NERRS:marcewq:1,2012-09-07T09:30:00Z,28.1323,-97.0344,0.0,36.0,1111122 
NERRS,ioos:station:NOAA.NERRS:marcewq:1,2012-09-07T10:00:00Z,28.1323,-97.0344,0.0,36.2,1111122 
NERRS,ioos:station:NOAA.NERRS:marcewq:1,2012-09-07T10:30:00Z,28.1323,-97.0344,0.0,36.2,1111122 
NERRS,ioos:station:NOAA.NERRS:marcewq:1,2012-09-07T11:00:00Z,28.1323,-97.0344,0.0,36.3,1111122 
NERRS,ioos:station:NOAA.NERRS:marcewq:1,2012-09-07T11:30:00Z,28.1323,-97.0344,0.0,36.2,1111122 
NERRS,ioos:station:NOAA.NERRS:marcewq:1,2012-09-07T12:00:00Z,28.1323,-97.0344,0.0,36.3,1111122 
NERRS,ioos:station:NOAA.NERRS:marcewq:1,2012-09-07T12:30:00Z,28.1323,-97.0344,0.0,36.3,1111122 
NERRS,ioos:station:NOAA.NERRS:marcewq:1,2012-09-07T13:00:00Z,28.1323,-97.0344,0.0,36.3,1111122 
NERRS,ioos:station:NOAA.NERRS:marcewq:1,2012-09-07T13:30:00Z,28.1323,-97.0344,0.0,36.3,1111122 
NERRS,ioos:station:NOAA.NERRS:marcewq:1,2012-09-07T14:00:00Z,28.1323,-97.0344,0.0,36.3,1111122 
NERRS,ioos:station:NOAA.NERRS:marcewq:1,2012-09-07T14:30:00Z,28.1323,-97.0344,0.0,36.3,1111122 
NERRS,ioos:station:NOAA.NERRS:marcewq:1,2012-09-07T15:00:00Z,28.1323,-97.0344,0.0,36.1,1111122 
NERRS,ioos:station:NOAA.NERRS:marcewq:1,2012-09-07T15:30:00Z,28.1323,-97.0344,0.0,36.1,1111122 
NERRS,ioos:station:NOAA.NERRS:marcewq:1,2012-09-07T16:00:00Z,28.1323,-97.0344,0.0,36.1,1111122 
NERRS,ioos:station:NOAA.NERRS:marcewq:1,2012-09-07T17:00:00Z,28.1323,-97.0344,0.0,36.1,1111122 
NERRS,ioos:station:NOAA.NERRS:marcewq:1,2012-09-07T17:30:00Z,28.1323,-97.0344,0.0,36.1,1111122 
NERRS,ioos:station:NOAA.NERRS:marcewq:1,2012-09-07T18:00:00Z,28.1323,-97.0344,0.0,36.2,1111122 
NERRS,ioos:station:NOAA.NERRS:marcewq:1,2012-09-07T18:30:00Z,28.1323,-97.0344,0.0,36.0,1111122 
NERRS,ioos:station:NOAA.NERRS:marcewq:1,2012-09-07T19:00:00Z,28.1323,-97.0344,0.0,36.0,1111122 
NERRS,ioos:station:NOAA.NERRS:marcewq:1,2012-09-07T19:30:00Z,28.1323,-97.0344,0.0,36.0,1111122 
NERRS,ioos:station:NOAA.NERRS:marcewq:1,2012-09-07T20:00:00Z,28.1323,-97.0344,0.0,36.0,1111122 
NERRS,ioos:station:NOAA.NERRS:marcewq:1,2012-09-07T20:30:00Z,28.1323,-97.0344,0.0,35.8,1111122 
NERRS,ioos:station:NOAA.NERRS:marcewq:1,2012-09-07T21:00:00Z,28.1323,-97.0344,0.0,35.7,1111122 
NERRS,ioos:station:NOAA.NERRS:marcewq:1,2012-09-07T21:30:00Z,28.1323,-97.0344,0.0,35.7,1111122 
NERRS,ioos:station:NOAA.NERRS:marcewq:1,2012-09-07T22:00:00Z,28.1323,-97.0344,0.0,35.7,1111122 
NERRS,ioos:station:NOAA.NERRS:marcewq:1,2012-09-07T22:30:00Z,28.1323,-97.0344,0.0,35.7,1111122 
NERRS,ioos:station:NOAA.NERRS:marcewq:1,2012-09-07T23:00:00Z,28.1323,-97.0344,0.0,35.7,1111122 
NERRS,ioos:station:NOAA.NERRS:marcewq:1,2012-09-07T23:30:00Z,28.1323,-97.0344,0.0,35.6,1111122 
NERRS,ioos:station:NOAA.NERRS:marcewq:1,2012-09-08T00:00:00Z,28.1323,-97.0344,0.0,35.5,1111122 
NERRS,ioos:station:NOAA.NERRS:marcewq:1,2012-09-08T00:30:00Z,28.1323,-97.0344,0.0,35.5,1111122 
NERRS,ioos:station:NOAA.NERRS:marcewq:1,2012-09-08T01:00:00Z,28.1323,-97.0344,0.0,35.5,1111122 
NERRS,ioos:station:NOAA.NERRS:marcewq:1,2012-09-08T01:30:00Z,28.1323,-97.0344,0.0,35.5,1111122 
NERRS,ioos:station:NOAA.NERRS:marcewq:1,2012-09-08T02:30:00Z,28.1323,-97.0344,0.0,35.5,1111122 
NERRS,ioos:station:NOAA.NERRS:marcewq:1,2012-09-08T03:00:00Z,28.1323,-97.0344,0.0,35.4,1111122 
NERRS,ioos:station:NOAA.NERRS:marcewq:1,2012-09-08T03:30:00Z,28.1323,-97.0344,0.0,35.4,1111122 
NERRS,ioos:station:NOAA.NERRS:marcewq:1,2012-09-08T04:00:00Z,28.1323,-97.0344,0.0,35.4,1111122 
NERRS,ioos:station:NOAA.NERRS:marcewq:1,2012-09-08T05:30:00Z,28.1323,-97.0344,0.0,35.5,1111122 
NERRS,ioos:station:NOAA.NERRS:marcewq:1,2012-09-08T08:00:00Z,28.1323,-97.0344,0.0,35.8,1111122 
NERRS,ioos:station:NOAA.NERRS:marcewq:1,2012-09-08T09:00:00Z,28.1323,-97.0344,0.0,36.0,1111122 
NERRS,ioos:station:NOAA.NERRS:marcewq:1,2012-09-08T09:30:00Z,28.1323,-97.0344,0.0,36.2,1111122 
NERRS,ioos:station:NOAA.NERRS:marcewq:1,2012-09-08T10:30:00Z,28.1323,-97.0344,0.0,36.4,1111122 
NERRS,ioos:station:NOAA.NERRS:marcewq:1,2012-09-08T11:00:00Z,28.1323,-97.0344,0.0,36.7,1111122 
NERRS,ioos:station:NOAA.NERRS:marcewq:1,2012-09-08T11:30:00Z,28.1323,-97.0344,0.0,35.1,1111122 
NERRS,ioos:station:NOAA.NERRS:marcewq:1,2012-09-08T12:00:00Z,28.1323,-97.0344,0.0,36.9,1111122 
NERRS,ioos:station:NOAA.NERRS:marcewq:1,2012-09-08T12:30:00Z,28.1323,-97.0344,0.0,37.0,1111122 
NERRS,ioos:station:NOAA.NERRS:marcewq:1,2012-09-08T13:00:00Z,28.1323,-97.0344,0.0,37.0,1111122 
NERRS,ioos:station:NOAA.NERRS:marcewq:1,2012-09-08T13:30:00Z,28.1323,-97.0344,0.0,37.0,1111122 
NERRS,ioos:station:NOAA.NERRS:marcewq:1,2012-09-08T14:00:00Z,28.1323,-97.0344,0.0,37.0,1111122 
NERRS,ioos:station:NOAA.NERRS:marcewq:1,2012-09-08T14:30:00Z,28.1323,-97.0344,0.0,36.9,1111122 
NERRS,ioos:station:NOAA.NERRS:marcewq:1,2012-09-08T15:00:00Z,28.1323,-97.0344,0.0,37.0,1111122 
NERRS,ioos:station:NOAA.NERRS:marcewq:1,2012-09-08T15:30:00Z,28.1323,-97.0344,0.0,37.2,1111122 
NERRS,ioos:station:NOAA.NERRS:marcewq:1,2012-09-08T16:00:00Z,28.1323,-97.0344,0.0,37.0,1111122 
NERRS,ioos:station:NOAA.NERRS:marcewq:1,2012-09-08T16:30:00Z,28.1323,-97.0344,0.0,36.9,1111122 
NERRS,ioos:station:NOAA.NERRS:marcewq:1,2012-09-08T17:00:00Z,28.1323,-97.0344,0.0,36.9,1111122 
NERRS,ioos:station:NOAA.NERRS:marcewq:1,2012-09-08T17:30:00Z,28.1323,-97.0344,0.0,36.9,1111122 
NERRS,ioos:station:NOAA.NERRS:marcewq:1,2012-09-08T18:00:00Z,28.1323,-97.0344,0.0,36.7,1111122 
NERRS,ioos:station:NOAA.NERRS:marcewq:1,2012-09-08T19:00:00Z,28.1323,-97.0344,0.0,36.6,1111122 
NERRS,ioos:station:NOAA.NERRS:marcewq:1,2012-09-08T19:30:00Z,28.1323,-97.0344,0.0,36.5,1111122 
NERRS,ioos:station:NOAA.NERRS:marcewq:1,2012-09-08T20:00:00Z,28.1323,-97.0344,0.0,36.5,1111122 
NERRS,ioos:station:NOAA.NERRS:marcewq:1,2012-09-08T20:30:00Z,28.1323,-97.0344,0.0,36.7,1111122 
NERRS,ioos:station:NOAA.NERRS:marcewq:1,2012-09-08T21:00:00Z,28.1323,-97.0344,0.0,36.3,1111122 
NERRS,ioos:station:NOAA.NERRS:marcewq:1,2012-09-08T21:30:00Z,28.1323,-97.0344,0.0,35.1,1111122 
NERRS,ioos:station:NOAA.NERRS:marcewq:1,2012-09-08T22:00:00Z,28.1323,-97.0344,0.0,35.1,1111122 
NERRS,ioos:station:NOAA.NERRS:marcewq:1,2012-09-08T22:30:00Z,28.1323,-97.0344,0.0,35.2,1111122 
NERRS,ioos:station:NOAA.NERRS:marcewq:1,2012-09-08T23:00:00Z,28.1323,-97.0344,0.0,35.4,1111122 
NERRS,ioos:station:NOAA.NERRS:marcewq:1,2012-09-08T23:30:00Z,28.1323,-97.0344,0.0,35.6,1111122 
NERRS,ioos:station:NOAA.NERRS:marcewq:1,2012-09-09T00:00:00Z,28.1323,-97.0344,0.0,35.7,1111122 
NERRS,ioos:station:NOAA.NERRS:marcewq:1,2012-09-09T00:30:00Z,28.1323,-97.0344,0.0,35.6,1111122 
NERRS,ioos:station:NOAA.NERRS:marcewq:1,2012-09-09T01:00:00Z,28.1323,-97.0344,0.0,35.7,1111122 
NERRS,ioos:station:NOAA.NERRS:marcewq:1,2012-09-09T01:30:00Z,28.1323,-97.0344,0.0,35.9,1111122 
NERRS,ioos:station:NOAA.NERRS:marcewq:1,2012-09-09T02:00:00Z,28.1323,-97.0344,0.0,36.0,1111122 
NERRS,ioos:station:NOAA.NERRS:marcewq:1,2012-09-09T02:30:00Z,28.1323,-97.0344,0.0,36.0,1111122 
NERRS,ioos:station:NOAA.NERRS:marcewq:1,2012-09-09T03:00:00Z,28.1323,-97.0344,0.0,35.8,1111122 
NERRS,ioos:station:NOAA.NERRS:marcewq:1,2012-09-09T03:30:00Z,28.1323,-97.0344,0.0,35.8,1111122 
NERRS,ioos:station:NOAA.NERRS:marcewq:1,2012-09-09T04:00:00Z,28.1323,-97.0344,0.0,34.4,1111122 
NERRS,ioos:station:NOAA.NERRS:marcewq:1,2012-09-09T04:30:00Z,28.1323,-97.0344,0.0,35.6,1111122 
NERRS,ioos:station:NOAA.NERRS:marcewq:1,2012-09-09T05:00:00Z,28.1323,-97.0344,0.0,35.6,1111122 
NERRS,ioos:station:NOAA.NERRS:marcewq:1,2012-09-09T05:30:00Z,28.1323,-97.0344,0.0,35.9,1111122 
NERRS,ioos:station:NOAA.NERRS:marcewq:1,2012-09-09T06:00:00Z,28.1323,-97.0344,0.0,35.8,1111122 
NERRS,ioos:station:NOAA.NERRS:marcewq:1,2012-09-09T06:30:00Z,28.1323,-97.0344,0.0,35.7,1111122 
NERRS,ioos:station:NOAA.NERRS:marcewq:1,2012-09-09T07:00:00Z,28.1323,-97.0344,0.0,35.7,1111122 
NERRS,ioos:station:NOAA.NERRS:marcewq:1,2012-09-09T07:30:00Z,28.1323,-97.0344,0.0,35.6,1111122 
NERRS,ioos:station:NOAA.NERRS:marcewq:1,2012-09-09T08:00:00Z,28.1323,-97.0344,0.0,35.4,1111122 
NERRS,ioos:station:NOAA.NERRS:marcewq:1,2012-09-09T08:30:00Z,28.1323,-97.0344,0.0,35.5,1111122 
NERRS,ioos:station:NOAA.NERRS:marcewq:1,2012-09-09T09:00:00Z,28.1323,-97.0344,0.0,35.6,1111122 
NERRS,ioos:station:NOAA.NERRS:marcewq:1,2012-09-09T09:30:00Z,28.1323,-97.0344,0.0,35.7,1111122 
NERRS,ioos:station:NOAA.NERRS:marcewq:1,2012-09-09T10:00:00Z,28.1323,-97.0344,0.0,35.9,1111122 
NERRS,ioos:station:NOAA.NERRS:marcewq:1,2012-09-09T10:30:00Z,28.1323,-97.0344,0.0,35.9,1111122 
NERRS,ioos:station:NOAA.NERRS:marcewq:1,2012-09-09T11:00:00Z,28.1323,-97.0344,0.0,35.8,1111122 
NERRS,ioos:station:NOAA.NERRS:marcewq:1,2012-09-09T11:30:00Z,28.1323,-97.0344,0.0,35.8,1111122 
NERRS,ioos:station:NOAA.NERRS:marcewq:1,2012-09-09T12:00:00Z,28.1323,-97.0344,0.0,35.7,1111122 
NERRS,ioos:station:NOAA.NERRS:marcewq:1,2012-09-09T12:30:00Z,28.1323,-97.0344,0.0,35.9,1111122 
NERRS,ioos:station:NOAA.NERRS:marcewq:1,2012-09-09T13:00:00Z,28.1323,-97.0344,0.0,36.0,1111122 
NERRS,ioos:station:NOAA.NERRS:marcewq:1,2012-09-09T13:30:00Z,28.1323,-97.0344,0.0,36.0,1111122 
NERRS,ioos:station:NOAA.NERRS:marcewq:1,2012-09-09T14:00:00Z,28.1323,-97.0344,0.0,36.0,1111122 
NERRS,ioos:station:NOAA.NERRS:marcewq:1,2012-09-09T14:30:00Z,28.1323,-97.0344,0.0,36.4,1111122 
NERRS,ioos:station:NOAA.NERRS:marcewq:1,2012-09-09T15:00:00Z,28.1323,-97.0344,0.0,36.5,1111122 
NERRS,ioos:station:NOAA.NERRS:marcewq:1,2012-09-09T15:30:00Z,28.1323,-97.0344,0.0,36.5,1111122 
NERRS,ioos:station:NOAA.NERRS:marcewq:1,2012-09-09T16:00:00Z,28.1323,-97.0344,0.0,36.8,1111122 
NERRS,ioos:station:NOAA.NERRS:marcewq:1,2012-09-09T16:30:00Z,28.1323,-97.0344,0.0,36.8,1111122 
NERRS,ioos:station:NOAA.NERRS:marcewq:1,2012-09-09T17:00:00Z,28.1323,-97.0344,0.0,36.7,1111122 
NERRS,ioos:station:NOAA.NERRS:marcewq:1,2012-09-09T17:30:00Z,28.1323,-97.0344,0.0,36.7,1111122 
NERRS,ioos:station:NOAA.NERRS:marcewq:1,2012-09-09T18:00:00Z,28.1323,-97.0344,0.0,36.6,1111122 
NERRS,ioos:station:NOAA.NERRS:marcewq:1,2012-09-09T18:30:00Z,28.1323,-97.0344,0.0,36.6,1111122 
NERRS,ioos:station:NOAA.NERRS:marcewq:1,2012-09-09T19:00:00Z,28.1323,-97.0344,0.0,36.8,1111122 
NERRS,ioos:station:NOAA.NERRS:marcewq:1,2012-09-09T19:30:00Z,28.1323,-97.0344,0.0,36.8,1111122 
NERRS,ioos:station:NOAA.NERRS:marcewq:1,2012-09-09T20:00:00Z,28.1323,-97.0344,0.0,36.6,1111122 
NERRS,ioos:station:NOAA.NERRS:marcewq:1,2012-09-09T20:30:00Z,28.1323,-97.0344,0.0,36.6,1111122 
NERRS,ioos:station:NOAA.NERRS:marcewq:1,2012-09-09T21:00:00Z,28.1323,-97.0344,0.0,36.4,1111122 
NERRS,ioos:station:NOAA.NERRS:marcewq:1,2012-09-09T21:30:00Z,28.1323,-97.0344,0.0,36.4,1111122 
NERRS,ioos:station:NOAA.NERRS:marcewq:1,2012-09-09T22:00:00Z,28.1323,-97.0344,0.0,36.2,1111122 
NERRS,ioos:station:NOAA.NERRS:marcewq:1,2012-09-09T22:30:00Z,28.1323,-97.0344,0.0,36.3,1111122 
NERRS,ioos:station:NOAA.NERRS:marcewq:1,2012-09-09T23:00:00Z,28.1323,-97.0344,0.0,36.2,1111122 
NERRS,ioos:station:NOAA.NERRS:marcewq:1,2012-09-09T23:30:00Z,28.1323,-97.0344,0.0,36.3,1111122 
NERRS,ioos:station:NOAA.NERRS:marcewq:1,2012-09-10T00:00:00Z,28.1323,-97.0344,0.0,36.5,1111122 
NERRS,ioos:station:NOAA.NERRS:marcewq:1,2012-09-10T00:30:00Z,28.1323,-97.0344,0.0,36.1,1111122 
NERRS,ioos:station:NOAA.NERRS:marcewq:1,2012-09-10T01:00:00Z,28.1323,-97.0344,0.0,36.6,1111122 
NERRS,ioos:station:NOAA.NERRS:marcewq:1,2012-09-10T01:30:00Z,28.1323,-97.0344,0.0,36.9,1111122 
NERRS,ioos:station:NOAA.NERRS:marcewq:1,2012-09-10T02:30:00Z,28.1323,-97.0344,0.0,36.2,1111122 
NERRS,ioos:station:NOAA.NERRS:marcewq:1,2012-09-10T03:00:00Z,28.1323,-97.0344,0.0,36.2,1111122 
NERRS,ioos:station:NOAA.NERRS:marcewq:1,2012-09-10T03:30:00Z,28.1323,-97.0344,0.0,36.0,1111122 
NERRS,ioos:station:NOAA.NERRS:marcewq:1,2012-09-10T04:00:00Z,28.1323,-97.0344,0.0,35.9,1111122 
NERRS,ioos:station:NOAA.NERRS:marcewq:1,2012-09-10T04:30:00Z,28.1323,-97.0344,0.0,35.9,1111122 
NERRS,ioos:station:NOAA.NERRS:marcewq:1,2012-09-10T05:00:00Z,28.1323,-97.0344,0.0,36.1,1111122 
NERRS,ioos:station:NOAA.NERRS:marcewq:1,2012-09-10T05:30:00Z,28.1323,-97.0344,0.0,36.1,1111122 
NERRS,ioos:station:NOAA.NERRS:marcewq:1,2012-09-10T06:00:00Z,28.1323,-97.0344,0.0,36.2,1111122 
NERRS,ioos:station:NOAA.NERRS:marcewq:1,2012-09-10T06:30:00Z,28.1323,-97.0344,0.0,36.7,1111122 
NERRS,ioos:station:NOAA.NERRS:marcewq:1,2012-09-10T07:00:00Z,28.1323,-97.0344,0.0,36.5,1111122 
NERRS,ioos:station:NOAA.NERRS:marcewq:1,2012-09-10T08:00:00Z,28.1323,-97.0344,0.0,36.1,1111122 
NERRS,ioos:station:NOAA.NERRS:marcewq:1,2012-09-10T08:30:00Z,28.1323,-97.0344,0.0,36.1,1111122 
NERRS,ioos:station:NOAA.NERRS:marcewq:1,2012-09-10T09:00:00Z,28.1323,-97.0344,0.0,36.6,1111122 
NERRS,ioos:station:NOAA.NERRS:marcewq:1,2012-09-10T09:30:00Z,28.1323,-97.0344,0.0,36.8,1111122 
NERRS,ioos:station:NOAA.NERRS:marcewq:1,2012-09-10T10:00:00Z,28.1323,-97.0344,0.0,36.5,1111122 
NERRS,ioos:station:NOAA.NERRS:marcewq:1,2012-09-10T10:30:00Z,28.1323,-97.0344,0.0,36.7,1111122 
NERRS,ioos:station:NOAA.NERRS:marcewq:1,2012-09-10T11:00:00Z,28.1323,-97.0344,0.0,36.3,1111122 
NERRS,ioos:station:NOAA.NERRS:marcewq:1,2012-09-10T11:30:00Z,28.1323,-97.0344,0.0,36.2,1111122 
NERRS,ioos:station:NOAA.NERRS:marcewq:1,2012-09-10T12:00:00Z,28.1323,-97.0344,0.0,37.1,1111122 
NERRS,ioos:station:NOAA.NERRS:marcewq:1,2012-09-10T12:30:00Z,28.1323,-97.0344,0.0,37.2,1111122 
NERRS,ioos:station:NOAA.NERRS:marcewq:1,2012-09-10T13:00:00Z,28.1323,-97.0344,0.0,36.7,1111122 
NERRS,ioos:station:NOAA.NERRS:marcewq:1,2012-09-10T13:30:00Z,28.1323,-97.0344,0.0,37.0,1111122 
NERRS,ioos:station:NOAA.NERRS:marcewq:1,2012-09-10T14:00:00Z,28.1323,-97.0344,0.0,36.6,1111122 
NERRS,ioos:station:NOAA.NERRS:marcewq:1,2012-09-10T14:30:00Z,28.1323,-97.0344,0.0,36.7,1111122 
NERRS,ioos:station:NOAA.NERRS:marcewq:1,2012-09-10T15:00:00Z,28.1323,-97.0344,0.0,36.6,1111122 
NERRS,ioos:station:NOAA.NERRS:marcewq:1,2012-09-10T15:30:00Z,28.1323,-97.0344,0.0,36.7,1111122 
NERRS,ioos:station:NOAA.NERRS:marcewq:1,2012-09-10T16:00:00Z,28.1323,-97.0344,0.0,36.8,1111122 
NERRS,ioos:station:NOAA.NERRS:marcewq:1,2012-09-10T16:30:00Z,28.1323,-97.0344,0.0,36.8,1111122 
NERRS,ioos:station:NOAA.NERRS:marcewq:1,2012-09-10T17:00:00Z,28.1323,-97.0344,0.0,36.7,1111122 
NERRS,ioos:station:NOAA.NERRS:marcewq:1,2012-09-10T17:30:00Z,28.1323,-97.0344,0.0,36.7,1111122 
NERRS,ioos:station:NOAA.NERRS:marcewq:1,2012-09-10T18:00:00Z,28.1323,-97.0344,0.0,36.8,1111122 
NERRS,ioos:station:NOAA.NERRS:marcewq:1,2012-09-10T18:30:00Z,28.1323,-97.0344,0.0,36.8,1111122 
NERRS,ioos:station:NOAA.NERRS:marcewq:1,2012-09-10T19:00:00Z,28.1323,-97.0344,0.0,36.7,1111122 
NERRS,ioos:station:NOAA.NERRS:marcewq:1,2012-09-10T19:30:00Z,28.1323,-97.0344,0.0,37.0,1111122 
NERRS,ioos:station:NOAA.NERRS:marcewq:1,2012-09-10T20:00:00Z,28.1323,-97.0344,0.0,36.8,1111122 
NERRS,ioos:station:NOAA.NERRS:marcewq:1,2012-09-10T20:30:00Z,28.1323,-97.0344,0.0,36.8,1111122 
NERRS,ioos:station:NOAA.NERRS:marcewq:1,2012-09-10T21:00:00Z,28.1323,-97.0344,0.0,36.7,1111122 
NERRS,ioos:station:NOAA.NERRS:marcewq:1,2012-09-10T21:30:00Z,28.1323,-97.0344,0.0,36.7,1111122 
NERRS,ioos:station:NOAA.NERRS:marcewq:1,2012-09-10T22:00:00Z,28.1323,-97.0344,0.0,36.6,1111122 
NERRS,ioos:station:NOAA.NERRS:marcewq:1,2012-09-10T22:30:00Z,28.1323,-97.0344,0.0,36.5,1111122 
NERRS,ioos:station:NOAA.NERRS:marcewq:1,2012-09-10T23:00:00Z,28.1323,-97.0344,0.0,36.8,1111122 
NERRS,ioos:station:NOAA.NERRS:marcewq:1,2012-09-10T23:30:00Z,28.1323,-97.0344,0.0,36.4,1111122 
NERRS,ioos:station:NOAA.NERRS:marcewq:1,2012-09-11T00:00:00Z,28.1323,-97.0344,0.0,36.4,1111122 
NERRS,ioos:station:NOAA.NERRS:marcewq:1,2012-09-11T00:30:00Z,28.1323,-97.0344,0.0,36.6,1111122 
NERRS,ioos:station:NOAA.NERRS:marcewq:1,2012-09-11T01:00:00Z,28.1323,-97.0344,0.0,36.4,1111122 
NERRS,ioos:station:NOAA.NERRS:marcewq:1,2012-09-11T01:30:00Z,28.1323,-97.0344,0.0,36.2,1111122 
NERRS,ioos:station:NOAA.NERRS:marcewq:1,2012-09-11T02:00:00Z,28.1323,-97.0344,0.0,36.1,1111122 
NERRS,ioos:station:NOAA.NERRS:marcewq:1,2012-09-11T02:30:00Z,28.1323,-97.0344,0.0,35.9,1111122 
NERRS,ioos:station:NOAA.NERRS:marcewq:1,2012-09-11T03:00:00Z,28.1323,-97.0344,0.0,34.3,1111122 
NERRS,ioos:station:NOAA.NERRS:marcewq:1,2012-09-11T03:30:00Z,28.1323,-97.0344,0.0,36.1,1111122 
NERRS,ioos:station:NOAA.NERRS:marcewq:1,2012-09-11T04:00:00Z,28.1323,-97.0344,0.0,36.1,1111122 
NERRS,ioos:station:NOAA.NERRS:marcewq:1,2012-09-11T04:30:00Z,28.1323,-97.0344,0.0,36.1,1111122 
NERRS,ioos:station:NOAA.NERRS:marcewq:1,2012-09-11T05:00:00Z,28.1323,-97.0344,0.0,36.0,1111122 
NERRS,ioos:station:NOAA.NERRS:marcewq:1,2012-09-11T05:30:00Z,28.1323,-97.0344,0.0,36.1,1111122 
NERRS,ioos:station:NOAA.NERRS:marcewq:1,2012-09-11T06:00:00Z,28.1323,-97.0344,0.0,36.3,1111122 
NERRS,ioos:station:NOAA.NERRS:marcewq:1,2012-09-11T06:30:00Z,28.1323,-97.0344,0.0,36.4,1111122 
NERRS,ioos:station:NOAA.NERRS:marcewq:1,2012-09-11T07:00:00Z,28.1323,-97.0344,0.0,36.4,1111122 
NERRS,ioos:station:NOAA.NERRS:marcewq:1,2012-09-11T07:30:00Z,28.1323,-97.0344,0.0,36.4,1111122 
NERRS,ioos:station:NOAA.NERRS:marcewq:1,2012-09-11T08:00:00Z,28.1323,-97.0344,0.0,36.7,1111122 
NERRS,ioos:station:NOAA.NERRS:marcewq:1,2012-09-11T08:30:00Z,28.1323,-97.0344,0.0,36.4,1111122 
NERRS,ioos:station:NOAA.NERRS:marcewq:1,2012-09-11T09:00:00Z,28.1323,-97.0344,0.0,36.6,1111122 
NERRS,ioos:station:NOAA.NERRS:marcewq:1,2012-09-11T09:30:00Z,28.1323,-97.0344,0.0,36.4,1111122 
NERRS,ioos:station:NOAA.NERRS:marcewq:1,2012-09-11T10:00:00Z,28.1323,-97.0344,0.0,36.6,1111122 
NERRS,ioos:station:NOAA.NERRS:marcewq:1,2012-09-11T10:30:00Z,28.1323,-97.0344,0.0,36.6,1111122 
NERRS,ioos:station:NOAA.NERRS:marcewq:1,2012-09-11T11:00:00Z,28.1323,-97.0344,0.0,36.3,1111122 
NERRS,ioos:station:NOAA.NERRS:marcewq:1,2012-09-11T11:30:00Z,28.1323,-97.0344,0.0,36.8,1111122 
NERRS,ioos:station:NOAA.NERRS:marcewq:1,2012-09-11T12:00:00Z,28.1323,-97.0344,0.0,36.8,1111122 
NERRS,ioos:station:NOAA.NERRS:marcewq:1,2012-09-11T12:30:00Z,28.1323,-97.0344,0.0,37.0,1111122 
NERRS,ioos:station:NOAA.NERRS:marcewq:1,2012-09-11T13:00:00Z,28.1323,-97.0344,0.0,34.9,1111122 
NERRS,ioos:station:NOAA.NERRS:marcewq:1,2012-09-11T13:30:00Z,28.1323,-97.0344,0.0,37.5,1111122 
NERRS,ioos:station:NOAA.NERRS:marcewq:1,2012-09-11T14:00:00Z,28.1323,-97.0344,0.0,37.8,1111122 
NERRS,ioos:station:NOAA.NERRS:marcewq:1,2012-09-11T14:30:00Z,28.1323,-97.0344,0.0,37.8,1111122 
NERRS,ioos:station:NOAA.NERRS:marcewq:1,2012-09-11T15:00:00Z,28.1323,-97.0344,0.0,37.8,1111122 
NERRS,ioos:station:NOAA.NERRS:marcewq:1,2012-09-11T15:30:00Z,28.1323,-97.0344,0.0,37.6,1111122 
NERRS,ioos:station:NOAA.NERRS:marcewq:1,2012-09-11T16:00:00Z,28.1323,-97.0344,0.0,37.8,1111122 
NERRS,ioos:station:NOAA.NERRS:marcewq:1,2012-09-11T16:30:00Z,28.1323,-97.0344,0.0,38.0,1111122 
NERRS,ioos:station:NOAA.NERRS:marcewq:1,2012-09-11T17:00:00Z,28.1323,-97.0344,0.0,37.4,1111122 
NERRS,ioos:station:NOAA.NERRS:marcewq:1,2012-09-11T17:30:00Z,28.1323,-97.0344,0.0,36.4,1111122 
NERRS,ioos:station:NOAA.NERRS:marcewq:1,2012-09-11T18:00:00Z,28.1323,-97.0344,0.0,36.3,1111122 
NERRS,ioos:station:NOAA.NERRS:marcewq:1,2012-09-11T18:30:00Z,28.1323,-97.0344,0.0,35.9,1111122 
NERRS,ioos:station:NOAA.NERRS:marcewq:1,2012-09-11T19:00:00Z,28.1323,-97.0344,0.0,36.4,1111122 
NERRS,ioos:station:NOAA.NERRS:marcewq:1,2012-09-11T19:30:00Z,28.1323,-97.0344,0.0,36.3,1111122 
NERRS,ioos:station:NOAA.NERRS:marcewq:1,2012-09-11T20:00:00Z,28.1323,-97.0344,0.0,35.7,1111122 
NERRS,ioos:station:NOAA.NERRS:marcewq:1,2012-09-11T20:30:00Z,28.1323,-97.0344,0.0,36.7,1111122 
NERRS,ioos:station:NOAA.NERRS:marcewq:1,2012-09-11T21:00:00Z,28.1323,-97.0344,0.0,37.8,1111122 
NERRS,ioos:station:NOAA.NERRS:marcewq:1,2012-09-11T21:30:00Z,28.1323,-97.0344,0.0,37.7,1111122 
NERRS,ioos:station:NOAA.NERRS:marcewq:1,2012-09-11T22:00:00Z,28.1323,-97.0344,0.0,35.7,1111122 
NERRS,ioos:station:NOAA.NERRS:marcewq:1,2012-09-11T22:30:00Z,28.1323,-97.0344,0.0,35.6,1111122 
NERRS,ioos:station:NOAA.NERRS:marcewq:1,2012-09-11T23:00:00Z,28.1323,-97.0344,0.0,37.7,1111122 
NERRS,ioos:station:NOAA.NERRS:marcewq:1,2012-09-11T23:30:00Z,28.1323,-97.0344,0.0,37.7,1111122 
NERRS,ioos:station:NOAA.NERRS:marcewq:1,2012-09-12T00:00:00Z,28.1323,-97.0344,0.0,37.7,1111122 
NERRS,ioos:station:NOAA.NERRS:marcewq:1,2012-09-12T00:30:00Z,28.1323,-97.0344,0.0,36.2,1111122 
NERRS,ioos:station:NOAA.NERRS:marcewq:1,2012-09-12T01:00:00Z,28.1323,-97.0344,0.0,35.5,1111122 
NERRS,ioos:station:NOAA.NERRS:marcewq:1,2012-09-12T01:30:00Z,28.1323,-97.0344,0.0,37.7,1111122 
NERRS,ioos:station:NOAA.NERRS:marcewq:1,2012-09-12T02:00:00Z,28.1323,-97.0344,0.0,37.7,1111122 
NERRS,ioos:station:NOAA.NERRS:marcewq:1,2012-09-12T02:30:00Z,28.1323,-97.0344,0.0,37.6,1111122 
NERRS,ioos:station:NOAA.NERRS:marcewq:1,2012-09-12T03:00:00Z,28.1323,-97.0344,0.0,37.6,1111122 
NERRS,ioos:station:NOAA.NERRS:marcewq:1,2012-09-12T03:30:00Z,28.1323,-97.0344,0.0,37.3,1111122 
NERRS,ioos:station:NOAA.NERRS:marcewq:1,2012-09-12T04:00:00Z,28.1323,-97.0344,0.0,37.2,1111122 